Overview Statistics Trail Chart Weather Telemetry Raw packets
 

This is the latest recevied weather packets stored in our database for station/object DO1BDB-12. If no packets are shown the sender has not sent any weather packets the latest 10 day(s).

<< 511 512 513 514 515 516 517 >>
Time Temp. Humidity Pressure Rain* Wind** Luminosity Snow
1787728936 27.22° C 44% 102.2 hPa - - - -
1787728870 27.22° C 44% 102.2 hPa - - - -
1787728804 24.44° C 48% 102.2 hPa - - - -
1787728739 23.89° C 49% 102.2 hPa - - - -
1787728672 23.89° C 51% 102.2 hPa - - - -
1787728608 23.33° C 54% 102.2 hPa - - - -
1787728541 22.22° C 55% 102.2 hPa - - - -
1787728475 21.67° C 57% 102.2 hPa - - - -
1787728409 23.89° C 51% 102.2 hPa - - - -
1787728343 23.89° C 52% 102.2 hPa - - - -
1787728277 22.22° C 56% 102.2 hPa - - - -
1787728212 21.67° C 56% 102.2 hPa - - - -
1787728146 22.22° C 56% 102.2 hPa - - - -
1787728080 22.78° C 53% 102.2 hPa - - - -
1787728014 22.22° C 57% 102.2 hPa - - - -
1787727948 21.11° C 61% 102.2 hPa - - - -
1787727882 20.56° C 62% 102.2 hPa - - - -
1787727817 20.56° C 61% 102.2 hPa - - - -
1787727751 20.56° C 62% 102.2 hPa - - - -
1787727685 19.44° C 65% 102.2 hPa - - - -
1787727619 19.44° C 64% 102.2 hPa - - - -
1787727553 19.44° C 65% 102.2 hPa - - - -
1787727489 19.44° C 64% 102.2 hPa - - - -
1787727422 18.89° C 66% 102.2 hPa - - - -
1787727356 18.89° C 66% 102.2 hPa - - - -

* Rain since midnight (hover to see other rain measurements)
** Current wind speed in m/s (hover to see current wind gust speed)